Starlink 3947

operational
NORAD ID: 52607 Int'l Des: 2022-052 Owner: SPXS Country: US Constellation: starlink
LEOCIRCULAR

About Starlink 3947

Description loading...

Live Position

Loading 3D Globe...

Upcoming Passes

Altitude History

Altitude vs Time

uPlot chart will show altitude changes over time

Two-Line Element Set

1 52607U 22052K 25295.97079884 .00000248 00000-0 33701-4 0 9998
2 52607 53.2170 182.3739 0001706 92.4118 267.7069 15.08837844189982
Epoch: Oct 22, 2025 • Age: 27 hours

Current Status

Altitude 559.5 km
Velocity 7.58 km/s
Sub-Earth Point -53.35°S, 23.95°E
Launch Date May 14, 2022
Age 3.4 years
Type internet

Technical Details

Classification Payload
Mass 297.00 kg
Dry Mass 275.00 kg
Total Mass 297.00 kg
Length 0.20 m
Diameter 2.80 m
Span 9.00 m
Shape Box + pan
Manufacturer SPXS
Bus Type Starlink
Phase Status In Orbit
Owner/State SPXS/US

Large Constellations

Loading constellations...